Regional Weather Roundup
Issued by NWS

Home | Current Version | Previous Version | Graphics & Text | Print | Product List | Glossary On
Versions: 1 2 3 4 5 6 7 8 9 10 11 12 13 14 15 16 17 18 19 20 21 22 23 24 25 26 27 28 29 30 31 32 33 34 35 36 37 38 39 40 41 42 43 44 45 46 47 48 49 50
000
ASUS43 KMKX 032010
RWRWI

WISCONSIN REGIONAL WEATHER ROUNDUP
NATIONAL WEATHER SERVICE MILWAUKEE/SULLIVAN WI
200 PM CST TUE MAR 03 2015

NOTE: "FAIR" INDICATES FEW OR NO CLOUDS BELOW 12,000 FEET WITH NO
SIGNIFICANT WEATHER AND/OR OBSTRUCTIONS TO VISIBILITY.

WIZ001-002-006>008-014>016-023>028-032100-
NORTHWEST WISCONSIN

CITY           SKY/WX    TMP DP  RH WIND       PRES   REMARKS
SUPERIOR ARPT  CLOUDY    27  20  75 W18       29.60R WCI  13
ASHLAND        CLOUDY    27  20  75 W17       29.56F HAZE    WCI  14
HAYWARD        LGT SNOW  25  18  74 W8G18     29.57S WCI  16
SIREN          CLOUDY    27  19  72 NW14      29.62S WCI  16
CUMBERLAND     CLOUDY    27  19  74 W16G25    29.59S WCI  14
RICE LAKE      CLOUDY    28  19  70 W14       29.61F WCI  17
CHETEK         CLOUDY    28  20  70 W10G24    29.60F WCI  19
LADYSMITH      CLOUDY    27  20  76 W17       29.58S WCI  14
EAU CLAIRE     CLOUDY    29  20  69 NW15      29.61  WCI  18
MENOMONIE      CLOUDY    30  22  71 W17G25    29.62F WCI  18
NEW RICHMOND   LGT SNOW  28  21  75 NW14G21   29.64S WCI  17
OSCEOLA        FLURRIES  29  21  73 W16       29.67F WCI  17
$$

WIZ003>005-009-010-017-018-032100-
NORTH CENTRAL WISCONSIN

CITY           SKY/WX    TMP DP  RH WIND       PRES   REMARKS
MANITOWISH WTR LGT SNOW  24  18  80 W13G18    29.49S WCI  12
ARBOR VITAE    PTSUNNY   25  19  76 W8        29.49F WCI  16
WOODRUFF       PTSUNNY   25  19  76 W8        29.49F WCI  16
RHINELANDER    CLOUDY    25  17  72 W14       29.49F WCI  13
EAGLE RIVER    FLURRIES  24  16  70 W13       29.47F WCI  12
LAND O LAKES   PTSUNNY   26  18  71 W8G17     29.47F WCI  17
PHILLIPS       CLOUDY    25  19  77 W8        29.52F WCI  16
TOMAHAWK       CLOUDY    26  17  67 W12G17    29.51F WCI  16
MEDFORD        CLOUDY    26  18  73 W13G21    29.54S WCI  15
MERRILL        CLOUDY    27  19  70 W8        29.52F WCI  19
$$

WIZ029-030-035-036-043>047-032100-
CENTRAL WISCONSIN

CITY           SKY/WX    TMP DP  RH WIND       PRES   REMARKS
WAUSAU         CLOUDY    25  18  74 W9G20     29.53F WCI  15
MOSINEE        CLOUDY    25  21  86 W12G22    29.55F WCI  14
MARSHFIELD     CLOUDY    27  20  75 W13       29.56S WCI  16
STEVENS POINT  CLOUDY    24  20  85 W10G16    29.57S WCI  14
WAUPACA        CLOUDY    29  24  80 W15       29.58S WCI  18
WAUTOMA        CLOUDY    28  24  85 W18       29.58S WCI  15
WISC RAPIDS    CLOUDY    26  20  77 W8        29.59F WCI  18
CAMP DOUGLAS   CLOUDY    28  28 100 W17       29.61  WCI  16
$$

WIZ011>013-019>022-031-037>040-048>050-032100-
NORTHEAST WISCONSIN

CITY           SKY/WX    TMP DP  RH WIND       PRES   REMARKS
ANTIGO         CLOUDY    24  18  77 W14G20    29.51F WCI  12
SHAWANO        MIX PCPN  29  24  80 W9G20     29.56S WCI  21
OCONTO         CLOUDY    28  26  90 W9        29.53F WCI  19
STURGEON BAY   CLOUDY    28  25  86 W13       29.53F WCI  18
GREEN BAY      CLOUDY    28  24  85 W15       29.55F WCI  16
MANITOWOC      CLOUDY    30  27  88 W18       29.54F WCI  18
APPLETON       CLOUDY    27  25  93 W14       29.55F WCI  15
CLINTONVILLE   CLOUDY    28  23  80 W8        29.56F WCI  20
OSHKOSH        CLOUDY    28  23  81 W8G18     29.56F WCI  20
$$

WIZ032>034-041-042-053>061-032100-
SOUTHWEST WISCONSIN

CITY           SKY/WX    TMP DP  RH WIND       PRES   REMARKS
LA CROSSE      CLOUDY    33  24  69 NW12      29.65S WCI  24
SPARTA         CLOUDY    29  23  78 W10G20    29.64S WCI  20
VIROQUA        CLOUDY    28  25  86 W9G20     29.62R WCI  20
BOSCOBEL       CLOUDY    32  25  75 W10       29.66R WCI  24
PRAIRIE DU CHI CLOUDY    32  25  75 W18       29.67R WCI  20
PLATTEVILLE    CLOUDY    32  29  90 W12       29.63S WCI  23
$$

WIZ056-057-062-063-064-067-068-032100-
SOUTH CENTRAL WISCONSIN

CITY           SKY/WX    TMP DP  RH WIND       PRES   REMARKS
REEDSBURG      CLOUDY    29  25  86 W12       29.61S WCI  19
BARABOO/DELLS  CLOUDY    29  25  84 W12G17    29.59F WCI  19
LONE ROCK      CLOUDY    31  25  78 W15       29.64S WCI  20
MINERAL POINT  CLOUDY    32  30  93 W14       29.61S WCI  22
MADISON        CLOUDY    32  26  78 W12G21    29.60F WCI  23
MIDDLETON      CLOUDY    32  28  83 NW16G23   29.61S WCI  21
WATERTOWN      CLOUDY    31  29  94 W13       29.58F WCI  21
MONROE         CLOUDY    32  30  93 W20       29.61S WCI  20
JANESVILLE     CLOUDY    34  30  86 W13       29.60F FOG     WCI  25
$$

WIZ051-052-058>065-066-070>072-032100-
SOUTHEAST WISCONSIN

CITY           SKY/WX    TMP DP  RH WIND       PRES   REMARKS
MILWAUKEE      CLOUDY    32  27  81 W13G22    29.59S WCI  22
WAUKESHA       CLOUDY    28  27  93 SW12G18   29.59F FOG     WCI  18
MILWAUKEE/TIMM CLOUDY    30  27  86 SW14      29.58F WCI  20
RACINE         CLOUDY    33  28  81 W16G23    29.60F WCI  23
BURLINGTON     CLOUDY    31  28  88 W10G16    29.60S WCI  22
KENOSHA        CLOUDY    33  30  88 W16       29.59F WCI  23
FOND DU LAC    CLOUDY    29  25  85 W10       29.56F WCI  20
SHEBOYGAN      CLOUDY    30  25  81 W18G25    29.55F WCI  18
WEST BEND      CLOUDY    30  27  86 W15G21    29.56F WCI  19
JUNEAU         CLOUDY    29  26  89 W14G22    29.58F WCI  19
$$

LSZ147-162-032100-
LAKE SUPERIOR

STATION/POSITION TIME  TEMP    WIND        PRES    WAVE
                       AIR SEA DIR/SP/G            HT/PER
                 (UTC) (F)     (DEG/KT/KT) (MB)    (FT/S)
DEVILS ISLAND    2000   25     250/ 22/ 25 1000.6F
PORT WING        1900   25     240/ 12/ 17 1002.4F
SAXON HARBOR     1900   26     220/  3/ 14 1001.7F
$$

LMZ867-665-643>646-032100-
LAKE MICHIGAN

STATION/POSITION TIME  TEMP    WIND        PRES    WAVE
                       AIR SEA DIR/SP/G            HT/PER
                 (UTC) (F)     (DEG/KT/KT) (MB)    (FT/S)
NORTHPORT PIER   1908   28     160/  6/ 20 1001.0F
SISTER BAY       1943   29     220/  8/ 10   N/A
KEWAUNEE LAKESHO 1900   29     220/  7/ 11 1000.7F
SHEBOYGAN LAKESH 2000   31     250/  4/  6 1001.7F
PORT WASHINGTON  1900   31     250/  3/  5 1002.7
MILWAUKEE LAKESH 1900   32     240/ 11/ 16   N/A
KENOSHA   LAKESH 2000   33     260/ 15/ 21 1002.4F
$$

TC  - TEMPERATURE IN CELSIUS
VSB - VISIBILITY IN STATUTE MILES
WCI - WIND CHILL INDEX
HX  - HEAT INDEX



USA.gov is the U.S. government's official web portal to all federal, state and local government web resources and services.